Location: Augustenthal
(51.7167°N, 10.2833°E)
Time: 18:34:13
(UTC+00:00)

Meteor 1-19 Rocket - Pass Details

Date: 18 May 2021
Orbit: 808 x 927 km, 81.2° (Epoch: 21 June)

Event Time Altitude Azimuth Distance (km) Brightness Sun altitude
Exits shadow 21:28:32 17° 187° (S) 1,961 5.6 -14.8°
Maximum altitude 21:32:48 84° 101° (E) 824 4.1 -15.1°
Drops below altitude 10° 21:38:17 10° 14° (NNE) 2,430 7.4 -15.4°
Sets 21:40:43 0° 14° (NNE) 3,380 8.2 -15.6°
